Вернуться в каталог

FREGAT R/B

АктивенHEO
NORAD 37830·ROCKET BODY·🇷🇺 Russia

Запущен Oct 2, 2011 с Plesetsk Cosmodrome

Loading…

Ближайшие Пролёты (ближайшие 24 часа)

TLE

СвежийSource: Space-Track

Эпоха: Sep 13, 2026, 02:09 UTC

1 37830U 11055B   26256.08963664  .00000003  00000-0  00000-0 0  9999
2 37830  65.1965  76.5065 0080955  92.1346 267.5369  2.09557389114390

Отслеживайте FREGAT R/B в реальном времени с AllMySat

Download on the App Store